Regional Weather Roundup
Issued by NWS

Home | Current Version | Previous Version | Text Only | Print | Product List | Glossary Off
Versions: 1 2 3 4 5 6 7 8 9 10 11 12 13 14 15 16 17 18 19 20 21 22 23 24 25 26 27 28 29 30 31 32 33 34 35 36 37 38 39 40 41 42 43 44 45 46 47 48 49 50

311
ASUS43 KTOP 310859
RWRKS

WEATHER ROUNDUP FOR KANSAS
NATIONAL WEATHER SERVICE GOODLAND KS
400 AM CDT TUE MAY 31 2016

NOTE:  "FAIR" INDICATES FEW OR NO CLOUDS BELOW 12,000 FEET WITH NO
SIGNIFICANT WEATHER AND/OR OBSTRUCTIONS TO VISIBILITY.

KSZ001>006-013>018-027>032-041>047-311000-
NORTHWEST KANSAS

CITY           SKY/WX    TMP DP  RH WIND       PRES   REMARKS
GOODLAND       CLEAR     50  47  89 CALM      29.99R
HAYS           CLOUDY    61  52  72 NE12      29.89S
HILL CITY      CLOUDY    60  57  89 N3        29.94R
RUSSELL        CLOUDY    59  57  93 E6        29.89F
$$

KSZ061>065-074>080-084>089-311000-
SOUTHWEST KANSAS

CITY           SKY/WX    TMP DP  RH WIND       PRES   REMARKS
DODGE CITY     LGT RAIN  58  56  93 E17       29.91F
ELKHART          N/A     61  54  78 W18         N/A
GARDEN CITY    CLOUDY    56  54  93 S10       29.95F
GREAT BEND     CLOUDY    61  54  77 S15       29.93F THUNDER
LIBERAL        CLOUDY    59  50  72 E16       29.98R
$$

KSZ066>073-081>083-090>101-311000-
SOUTHEAST KANSAS

CITY           SKY/WX    TMP DP  RH WIND       PRES   REMARKS
CHANUTE        CLOUDY    61  59  93 SW3       29.94R FOG
COFFEYVILLE    CLOUDY    63  62  97 CALM      29.94R
HUTCHINSON     LGT RAIN  63  58  83 N12       29.96S
MEDICINE LODGE   N/A     66  63  90 W9        29.95R
NEWTON         CLOUDY    63  57  82 N7        29.98R
PARSONS        CLOUDY    63  61  93 CALM      29.96R
WICHITA INTL   CLOUDY    64  62  93 SE6       29.91F
WICHITA JABRA  CLOUDY    62  61  96 SE7       29.91F
WINFIELD       PTCLDY    64  62  93 SE5       29.93F
$$

KSZ007>012-019>026-033>040-048>060-102>105-311000-
NORTHEAST KANSAS

CITY           SKY/WX    TMP DP  RH WIND       PRES   REMARKS
CONCORDIA      CLOUDY    60  58  92 MISG      29.90S
EMPORIA        CLOUDY    59  58  96 CALM      29.93F
LAWRENCE       CLOUDY    60  59  96 CALM      29.93F
MANHATTAN      MOCLDY    65  60  84 SW5       29.90F
OLATHE IND     CLOUDY    62  61  96 CALM      29.94F
OLATHE EXE     CLOUDY    61  60  97 CALM      29.93F
SALINA         RAIN      62  61  96 S9        29.94F
TOPEKA BILLARD CLOUDY    63  60  90 CALM      29.93F
TOPEKA FORBES  CLOUDY    62  60  93 CALM      29.93F
$$




USA.gov is the U.S. government's official web portal to all federal, state and local government web resources and services.